This demonstration page uses our WeatherBlox Daily Observations layout. Learn more.

Left ArrowRight Arrow

Hourly Observations for January 26, 2017

Temp ( °F °C ) Dew Point ( °F °C ) Humidity (%) Winds ( mph kmh ) Pressure ( in mb ) Visibility ( mi km ) Precip ( " mm )
12:53 am 00:53 Clear 32 0 14 -10 47 47 NNW 5 7 30.16 1021 10 16 0.00 0.00
1:53 am 01:53 Clear 31 -0.6 16 -8.9 54 54 W 5 7 30.16 1021 10 16 0.00 0.00
2:53 am 02:53 Clear 28 -2.2 16 -8.9 60 60 Calm 30.17 1022 10 16 0.00 0.00
3:53 am 03:53 Clear 26 -3.3 17 -8.3 69 69 WNW 7 11 30.17 1022 10 16 0.00 0.00
4:53 am 04:53 Clear 25 -3.9 18 -7.8 75 75 NW 7 11 30.18 1022 10 16 0.00 0.00
5:53 am 05:53 Clear 24 -4.4 17 -8.3 75 75 NNW 5 7 30.20 1023 10 16 0.00 0.00
6:53 am 06:53 Clear 24 -4.4 17 -8.3 75 75 N 3 6 30.24 1024 10 16 0.00 0.00
7:53 am 07:53 Sunny 24 -4.4 17 -8.3 75 75 Calm 30.26 1025 10 16 0.00 0.00
8:53 am 08:53 Partly Cloudy 29 -1.7 20 -6.7 69 69 Calm 30.29 1026 10 16 0.00 0.00
9:53 am 09:53 Sunny 40 4.4 19 -7.2 43 43 Calm 30.29 1026 10 16 0.00 0.00
10:53 am 10:53 Sunny 44 6.7 12 -11.1 27 27 SE 3 6 30.27 1025 10 16 0.00 0.00
11:53 am 11:53 Sunny 47 8.3 11 -11.7 23 23 Calm 30.26 1025 10 16 0.00 0.00
12:53 pm 12:53 Sunny 49 9.4 10 -12.2 21 21 E 5 7 30.21 1023 10 16 0.00 0.00
1:53 pm 13:53 Sunny 50 10 11 -11.7 21 21 W 6 9 30.17 1022 10 16 0.00 0.00
2:53 pm 14:53 Sunny 51 10.6 10 -12.2 19 19 W 6 9 30.15 1021 10 16 0.00 0.00
3:53 pm 15:53 Sunny 53 11.7 12 -11.1 19 19 Calm 30.13 1020 10 16 0.00 0.00
4:53 pm 16:53 Sunny 55 12.8 12 -11.1 18 18 Calm 30.13 1020 10 16 0.00 0.00
5:53 pm 17:53 Sunny 52 11.1 13 -10.6 21 21 E 6 9 30.12 1020 10 16 0.00 0.00
6:53 pm 18:53 Clear 45 7.2 15 -9.4 30 30 NE 7 11 30.15 1021 10 16 0.00 0.00
7:53 pm 19:53 Clear 39 4 18 -8 42 42 NE 7 11 30.21 1023 10 16 0.00 0.00
8:53 pm 20:53 Clear 38 3.3 17 -8.3 43 43 ENE 6 9 30.19 1022 10 16 0.00 0.00
9:53 pm 21:53 Clear 36 2.2 16 -8.9 44 44 ENE 5 7 30.18 1022 10 16 0.00 0.00
10:53 pm 22:53 Clear 35 1.7 16 -8.9 46 46 NE 6 9 30.19 1022 10 16 0.00 0.00
11:53 pm 23:53 Clear 32 0 17 -8.3 54 54 NNE 8 13 30.19 1023 10 16 0.00 0.00

Powered by AerisWeather